weather.gov     
National Weather Service

Regional Weather Roundup
NWS Homepage
This page is being discontinued on March 12, 2014.
The same data is available at this site. Please update your bookmarks.
Thank you, and we apologize for the inconvenience.
Please send an email to SR-SRH.Webmaster@noaa.gov with any concerns.


Current Version
Previous Version:    01  02  03  04  05  06  07  08  09  10  11  12  13  14  15  16  17  18  19  20  21  22  23  24  25  26  27  28  29  30  
   31  32  33  34  35  36  37  38  39  40  41  42  43  44  45  46  47  48  49  50  51  52  53  
[Printable]
187
ASUS44 KMEG 020610
RWRTN
TENNESSEE HOURLY STATE WEATHER ROUNDUP
NATIONAL WEATHER SERVICE MEMPHIS TN
100 AM CDT SAT AUG 02 2014

TNZ002-004-019-021-049-052-054-088>092-020700-
WEST TENNESSEE

CITY           SKY/WX    TMP DP  RH WIND       PRES   REMARKS
MEMPHIS INTL   PTCLDY    77  64  64 NE6       30.04S
NWS MEMPHIS      N/A     70 N/A N/A MISG        N/A
JACKSON        CLEAR     67  65  93 CALM      30.04F FOG
DYERSBURG      CLEAR     68  57  68 CALM      30.05F
UNION CITY     CLEAR     66  66 100 CALM      30.04F
PARIS          PTCLDY    63  61  93 CALM      30.06S
LEXINGTON      MOCLDY    68  66  94 CALM      30.04S
SAVANNAH       PTCLDY    68  68 100 CALM      30.05S
$$

TNZ008-025-027-028-033-062-065-066-020700-
NORTH MIDDLE TENNESSEE

CITY           SKY/WX    TMP DP  RH WIND       PRES   REMARKS
NASHVILLE      CLOUDY    76  66  71 CALM      30.05S
DICKSON        MOCLDY    70  64  83 CALM      30.05F
PORTLAND       PTCLDY    66  63  88 CALM      30.06S
CLARKSVILLE    CLEAR     67  59  75 N5        30.04F
LEBANON        CLOUDY    73  66  78 CALM      30.04S
SMYRNA         MOCLDY    73  70  91 CALM      30.05F
MURFREESBORO   MOCLDY    73  69  87 CALM      30.04F
COOKEVILLE     MOCLDY    70  68  94 CALM      30.07F
LIVINGSTON       N/A     69  63  81 CALM      30.09S
GALLATIN       CLOUDY    72  64  75 CALM      30.06F
CROSSVILLE     MOCLDY    69  64  84 CALM      30.12S
$$

TNZ061-075-076-078-094-096-097-020700-
SOUTH MIDDLE TENNESSEE

CITY           SKY/WX    TMP DP  RH WIND       PRES   REMARKS
LEWISBURG      CLOUDY    69  65  87 CALM      30.05F
FAYETTEVILLE   CLEAR     68  63  83 NE10G30   30.06F
TULLAHOMA      CLOUDY    72  64  78 CALM      30.08F
WINCHESTER     CLOUDY    68  66  94 CALM      30.07F
MCMINNVILLE    CLOUDY    72  72 100 CALM      30.07F
COLUMBIA       PTCLDY    70  70 100 CALM      30.04F
SHELBYVILLE    CLOUDY    72  70  94 SE3       30.06F
$$

TNZ017-018-042-046-047-020700-
NORTHEAST TENNESSEE

CITY           SKY/WX    TMP DP  RH WIND       PRES   REMARKS
TRI CITIES     PTCLDY    64  57  78 CALM      30.13S
ELIZABETHTON   CLEAR     61  57  88 CALM      30.14S
$$

TNZ012-013-036-069-073-074-020700-
CENTRAL EAST TENNESSEE

CITY           SKY/WX    TMP DP  RH WIND       PRES   REMARKS
KNOXVILLE      MOCLDY    73  66  78 CALM      30.07S
OAK RIDGE      HVY RAIN  69  67  93 SE3       30.10R VSB 3/4
GATLINBURG     CLEAR     68  64  88 CALM      30.07S
MORRISTOWN     CLEAR     68  61  77 NE6       30.11S
$$

TNZ083-085-099-020700-
SOUTHEAST TENNESSEE

CITY           SKY/WX    TMP DP  RH WIND       PRES   REMARKS
CHATTANOOGA    CLOUDY    73  70  90 S3        30.07F
$$

SKY/WX REPORTED AS FAIR MEANS FEW OR NO CLOUDS BELOW
12 THOUSAND FEET.





U.S. Dept. of Commerce
NOAA National Weather Service
1325 East West Highway
Silver Spring, MD 20910
E-mail: w-nws.webmaster@noaa.gov
Page last modified: May 16, 2007
NATIONAL WEATHER SERVICE: for Safety, for Work, for Fun - FOR LIFE